Simultaneous Nadir Overpasses (SNOs) Predictions

Prediction of SNOs between NOAA-19 and METOP-C Satellite Orbit:

Table of predicted SNOs for the next 14.0 days since TLE Epoch: 7/27/2024
Index Date (NOAA-19) Time (NOAA-19) Lat,Lon (NOAA-19) SZA (NOAA-19 ) Date (METOP-C) Time (METOP-C) Lat,Lon (METOP-C) SZA (METOP-C ) Distance(km) Time Diff (sec)
1 07/31/2024 12:07:00 77.96, 6.35 59.92 07/31/2024 12:07:56 77.96, 6.37 59.92 0.44 56
2 07/31/2024 12:57:50 -78.13, 174.61 119.88 07/31/2024 12:58:34 -78.13, 174.54 119.89 1.89 44
3 07/31/2024 13:48:50 78.26, -17.41 60.28 07/31/2024 13:49:10 78.27, -17.34 60.30 2.19 20
4 07/31/2024 14:39:41 -78.39, 150.65 119.56 07/31/2024 14:39:49 -78.39, 150.65 119.56 0.08 8
5 07/31/2024 15:30:38 78.62, -40.62 60.73 07/31/2024 15:30:23 78.61, -40.72 60.71 2.66 15
6 07/31/2024 16:21:32 -78.63, 126.76 119.24 07/31/2024 16:21:04 -78.64, 126.82 119.24 1.70 28
7 07/31/2024 17:12:30 78.82, -64.69 61.01 07/31/2024 17:11:39 78.82, -64.73 60.99 0.95 51



Historial Predications of SNOs between NOAA-19 and METOP-C
